Aktuell
News
Messwerte
Diagramme
Archiv
Wettervorhersage
Regen
Wettergefahren

Astro & Geo
Health
Pegel
Gästebuch
Kontakt
Impressum
Datenschutz
App

Wolkenlos bei 13.3 °C – Luftdruck: 1011.8 hPa – Wind: SO 1.4 km/h
Messwerte von 04:26 Uhr; Warnsymbol: Datenbasis DWD; Wetterzustand powered by OpenWeatherMap, CC BY-SA 4.0
Übersicht
Heute
Gestern
Vor 1 Jahr
Info
Gestern – Der Tag im Rückblick
 
Messwerte von Montag, 21.09.2020
Symbol
Zeitpunkt
Wetter-
zustand
Zeitpunkt
Temperatur
gefühlt
Zeitpunkt
Luftfeuchte
Taupunkt
Zeitpunkt
Luftdruck
Zeitpunkt
Wind
Zeitpunkt
Windböen
Max 15 Min.
Wind-
richtung
Zeitpunkt
Regen
Summe 1 h
Regenrate
Max 15 Min.
UV-Index
Max 15 Min.
Pegel Köln
Zeitpunkt
Warnlage
Zeitpunkt
00:15 Wolkenlos2 16.0 °C
16.0 °C
59 %
7.9 °C
1015.7 hPa 0.0 km/h
0 Bft
4.7 km/h
1 Bft
N -
0.0 mm/h
0.0 134 cm
00:30 Wolkenlos2 16.0 °C
16.0 °C
59 %
7.9 °C
1015.7 hPa 0.0 km/h
0 Bft
0.0 km/h
0 Bft
N -
0.0 mm/h
0.0 134 cm
00:45 Wolkenlos2 16.0 °C
16.0 °C
60 %
8.2 °C
1015.7 hPa 0.0 km/h
0 Bft
0.0 km/h
0 Bft
N -
0.0 mm/h
0.0 134 cm
01:00 Wolkenlos2 15.5 °C
15.5 °C
61 %
7.9 °C
1015.7 hPa 0.0 km/h
0 Bft
0.0 km/h
0 Bft
N 0.00 mm
0.0 mm/h
0.0 134 cm
01:15 Wolkenlos2 15.3 °C
15.3 °C
63 %
8.2 °C
1015.6 hPa 0.0 km/h
0 Bft
1.4 km/h
1 Bft
N -
0.0 mm/h
0.0 134 cm
01:30 Wolkenlos2 15.0 °C
15.0 °C
64 %
8.2 °C
1015.7 hPa 1.4 km/h
1 Bft
1.4 km/h
1 Bft
N -
0.0 mm/h
0.0 134 cm
01:45 Wolkenlos2 14.8 °C
14.8 °C
65 %
8.2 °C
1015.7 hPa 0.0 km/h
0 Bft
1.4 km/h
1 Bft
N -
0.0 mm/h
0.0 134 cm
02:00 Wolkenlos3 14.8 °C
14.8 °C
65 %
8.2 °C
1015.6 hPa 0.0 km/h
0 Bft
0.0 km/h
0 Bft
N 0.00 mm
0.0 mm/h
0.0 135 cm
02:15 Wolkenlos3 14.7 °C
14.7 °C
66 %
8.4 °C
1015.6 hPa 0.0 km/h
0 Bft
1.4 km/h
1 Bft
N -
0.0 mm/h
0.0 134 cm
02:30 Wolkenlos3 14.5 °C
14.5 °C
67 %
8.4 °C
1015.6 hPa 0.0 km/h
0 Bft
1.4 km/h
1 Bft
N -
0.0 mm/h
0.0 134 cm
02:45 Wolkenlos3 14.7 °C
14.7 °C
67 %
8.6 °C
1015.6 hPa 3.2 km/h
1 Bft
6.5 km/h
2 Bft
SO -
0.0 mm/h
0.0 134 cm
03:00 Wolkenlos2 14.5 °C
14.5 °C
68 %
8.5 °C
1015.5 hPa 1.4 km/h
1 Bft
3.2 km/h
1 Bft
SO 0.00 mm
0.0 mm/h
0.0 134 cm
03:15 Wolkenlos2 14.4 °C
14.4 °C
67 %
8.2 °C
1015.3 hPa 1.4 km/h
1 Bft
3.2 km/h
1 Bft
SO -
0.0 mm/h
0.0 134 cm
03:30 Wolkenlos2 14.2 °C
14.2 °C
68 %
8.2 °C
1015.3 hPa 1.4 km/h
1 Bft
3.2 km/h
1 Bft
SO -
0.0 mm/h
0.0 134 cm
03:45 Wolkenlos2 14.1 °C
14.1 °C
69 %
8.4 °C
1015.2 hPa 1.4 km/h
1 Bft
3.2 km/h
1 Bft
SO -
0.0 mm/h
0.0 134 cm
04:00 Wolkenlos3 13.8 °C
13.8 °C
70 %
8.3 °C
1015.1 hPa 1.4 km/h
1 Bft
1.4 km/h
1 Bft
SO 0.00 mm
0.0 mm/h
0.0 134 cm
04:15 Wolkenlos3 13.6 °C
13.6 °C
71 %
8.3 °C
1015.1 hPa 1.4 km/h
1 Bft
3.2 km/h
1 Bft
SO -
0.0 mm/h
0.0 134 cm
04:30 Wolkenlos3 13.4 °C
13.4 °C
72 %
8.3 °C
1015.2 hPa 1.4 km/h
1 Bft
3.2 km/h
1 Bft
SO -
0.0 mm/h
0.0 134 cm
04:45 Wolkenlos3 12.6 °C
12.6 °C
74 %
8.0 °C
1015.2 hPa 1.4 km/h
1 Bft
3.2 km/h
1 Bft
SO -
0.0 mm/h
0.0 134 cm
05:00 Wolkenlos3 12.2 °C
12.2 °C
76 %
8.0 °C
1015.3 hPa 0.0 km/h
0 Bft
1.4 km/h
1 Bft
SO 0.00 mm
0.0 mm/h
0.0 134 cm
05:15 Wolkenlos3 12.1 °C
12.1 °C
76 %
7.9 °C
1015.2 hPa 0.0 km/h
0 Bft
1.4 km/h
1 Bft
SO -
0.0 mm/h
0.0 134 cm
05:30 Leicht bewölkt3 12.0 °C
12.0 °C
76 %
7.8 °C
1015.2 hPa 1.4 km/h
1 Bft
3.2 km/h
1 Bft
SO -
0.0 mm/h
0.0 133 cm
05:45 Wolkenlos2 11.7 °C
11.7 °C
77 %
7.7 °C
1015.3 hPa 0.0 km/h
0 Bft
1.4 km/h
1 Bft
SO -
0.0 mm/h
0.0 133 cm
06:00 Wolkenlos2 11.6 °C
11.6 °C
78 %
7.8 °C
1015.2 hPa 0.0 km/h
0 Bft
0.0 km/h
0 Bft
SO 0.00 mm
0.0 mm/h
0.0 134 cm
06:15 Wolkenlos2 11.6 °C
11.6 °C
78 %
7.8 °C
1015.3 hPa 0.0 km/h
0 Bft
0.0 km/h
0 Bft
SO -
0.0 mm/h
0.0 133 cm
06:30 Wolkenlos2 11.5 °C
11.5 °C
78 %
7.7 °C
1015.4 hPa 0.0 km/h
0 Bft
0.0 km/h
0 Bft
SO -
0.0 mm/h
0.0 133 cm
06:45 Wolkenlos3 11.9 °C
11.9 °C
78 %
8.1 °C
1015.3 hPa 0.0 km/h
0 Bft
0.0 km/h
0 Bft
SO -
0.0 mm/h
0.0 133 cm
07:00 Wolkenlos3 11.6 °C
11.6 °C
79 %
8.0 °C
1015.4 hPa 0.0 km/h
0 Bft
1.4 km/h
1 Bft
SO 0.00 mm
0.0 mm/h
0.0 133 cm
07:15 Wolkenlos3 11.9 °C
11.9 °C
78 %
8.1 °C
1015.5 hPa 0.0 km/h
0 Bft
0.0 km/h
0 Bft
SO -
0.0 mm/h
0.0 132 cm
07:30 Leicht bewölkt3 11.7 °C
11.7 °C
78 %
7.9 °C
1015.6 hPa 1.4 km/h
1 Bft
3.2 km/h
1 Bft
SSO -
0.0 mm/h
0.0 132 cm
07:45 Leicht bewölkt3 12.1 °C
12.1 °C
76 %
7.9 °C
1015.6 hPa 3.2 km/h
1 Bft
4.7 km/h
1 Bft
SO -
0.0 mm/h
0.0 132 cm
08:00 Leicht bewölkt3 12.3 °C
12.3 °C
75 %
7.9 °C
1015.8 hPa 3.2 km/h
1 Bft
7.9 km/h
2 Bft
SO 0.00 mm
0.0 mm/h
0.0 132 cm
08:15 Leicht bewölkt3 12.5 °C
12.5 °C
74 %
7.9 °C
1016.1 hPa 1.4 km/h
1 Bft
6.5 km/h
2 Bft
SO -
0.0 mm/h
0.0 132 cm
08:30 Leicht bewölkt3 12.9 °C
12.9 °C
71 %
7.6 °C
1016.1 hPa 3.2 km/h
1 Bft
4.7 km/h
1 Bft
OSO -
0.0 mm/h
0.0 133 cm
08:45 Sonnig2 13.3 °C
13.3 °C
72 %
8.2 °C
1016.1 hPa 1.4 km/h
1 Bft
4.7 km/h
1 Bft
OSO -
0.0 mm/h
0.0 133 cm
09:00 Sonnig2 13.4 °C
13.4 °C
71 %
8.1 °C
1016.1 hPa 1.4 km/h
1 Bft
4.7 km/h
1 Bft
SO 0.00 mm
0.0 mm/h
0.0 133 cm
09:15 Sonnig2 13.9 °C
13.9 °C
68 %
8.0 °C
1016.1 hPa 1.4 km/h
1 Bft
4.7 km/h
1 Bft
SO -
0.0 mm/h
0.6 132 cm
09:30 Sonnig2 14.1 °C
14.1 °C
67 %
7.9 °C
1016.2 hPa 3.2 km/h
1 Bft
6.5 km/h
2 Bft
SO -
0.0 mm/h
0.8 132 cm
09:45 Sonnig2 14.4 °C
14.4 °C
66 %
8.0 °C
1016.1 hPa 4.7 km/h
1 Bft
9.7 km/h
2 Bft
SO -
0.0 mm/h
0.9 133 cm
10:00 Sonnig2 14.7 °C
14.7 °C
64 %
7.9 °C
1016.2 hPa 3.2 km/h
1 Bft
11.2 km/h
2 Bft
O 0.00 mm
0.0 mm/h
1.3 132 cm
10:15 Sonnig2 15.2 °C
15.2 °C
62 %
7.9 °C
1016.0 hPa 4.7 km/h
1 Bft
9.7 km/h
2 Bft
SO -
0.0 mm/h
1.6 132 cm
10:30 Sonnig2 15.8 °C
15.8 °C
61 %
8.2 °C
1015.9 hPa 3.2 km/h
1 Bft
13.0 km/h
3 Bft
SO -
0.0 mm/h
1.8 133 cm
10:45 Sonnig2 16.3 °C
16.3 °C
59 %
8.2 °C
1015.8 hPa 4.7 km/h
1 Bft
11.2 km/h
2 Bft
OSO -
0.0 mm/h
2.2 132 cm
11:00 Sonnig2 16.9 °C
16.9 °C
56 %
8.0 °C
1015.6 hPa 4.7 km/h
1 Bft
13.0 km/h
3 Bft
SSW 0.00 mm
0.0 mm/h
2.4 133 cm
11:15 Sonnig2 17.5 °C
17.5 °C
55 %
8.3 °C
1015.6 hPa 3.2 km/h
1 Bft
7.9 km/h
2 Bft
OSO -
0.0 mm/h
2.6 132 cm
11:30 Sonnig2 18.1 °C
18.1 °C
52 %
8.0 °C
1015.6 hPa 1.4 km/h
1 Bft
3.2 km/h
1 Bft
SO -
0.0 mm/h
2.8 132 cm
11:45 Sonnig2 18.7 °C
18.7 °C
51 %
8.3 °C
1015.4 hPa 3.2 km/h
1 Bft
6.5 km/h
2 Bft
SSW -
0.0 mm/h
3.0 132 cm
12:00 Sonnig2 18.9 °C
18.9 °C
48 %
7.6 °C
1015.2 hPa 3.2 km/h
1 Bft
9.7 km/h
2 Bft
W 0.00 mm
0.0 mm/h
3.1 132 cm
12:15 Sonnig2 20.0 °C
20.0 °C
46 %
8.0 °C
1015.1 hPa 1.4 km/h
1 Bft
6.5 km/h
2 Bft
OSO -
0.0 mm/h
3.3 132 cm
12:30 Sonnig2 20.6 °C
20.6 °C
44 %
7.8 °C
1015.0 hPa 1.4 km/h
1 Bft
6.5 km/h
2 Bft
SSW -
0.0 mm/h
3.5 133 cm
12:45 Sonnig2 21.5 °C
21.5 °C
43 %
8.3 °C
1014.9 hPa 3.2 km/h
1 Bft
7.9 km/h
2 Bft
SO -
0.0 mm/h
3.6 132 cm
13:00 Sonnig2 22.5 °C
22.5 °C
41 %
8.5 °C
1014.9 hPa 4.7 km/h
1 Bft
11.2 km/h
2 Bft
ONO 0.00 mm
0.0 mm/h
3.7 132 cm
13:15 Sonnig2 22.5 °C
22.5 °C
40 %
8.1 °C
1014.9 hPa 1.4 km/h
1 Bft
9.7 km/h
2 Bft
SO -
0.0 mm/h
3.7 133 cm
13:30 Sonnig2 23.3 °C
23.3 °C
40 %
8.9 °C
1014.7 hPa 1.4 km/h
1 Bft
7.9 km/h
2 Bft
NO -
0.0 mm/h
3.7 133 cm
13:45 Sonnig2 24.0 °C
24.0 °C
38 %
8.7 °C
1014.6 hPa 3.2 km/h
1 Bft
9.7 km/h
2 Bft
NNO -
0.0 mm/h
3.7 133 cm
14:00 Sonnig2 24.4 °C
24.4 °C
38 %
9.1 °C
1014.6 hPa 4.7 km/h
1 Bft
11.2 km/h
2 Bft
O 0.00 mm
0.0 mm/h
3.7 133 cm
14:15 Sonnig2 25.1 °C
25.1 °C
36 %
8.9 °C
1014.4 hPa 3.2 km/h
1 Bft
11.2 km/h
2 Bft
O -
0.0 mm/h
3.6 133 cm
14:30 Sonnig2 25.7 °C
25.7 °C
34 %
8.5 °C
1014.2 hPa 3.2 km/h
1 Bft
13.0 km/h
3 Bft
SO -
0.0 mm/h
3.6 133 cm
14:45 Sonnig2 26.0 °C
26.0 °C
34 %
8.8 °C
1014.1 hPa 1.4 km/h
1 Bft
6.5 km/h
2 Bft
SO -
0.0 mm/h
3.5 134 cm
15:00 Sonnig2 26.5 °C
26.5 °C
33 %
8.8 °C
1014.0 hPa 1.4 km/h
1 Bft
7.9 km/h
2 Bft
OSO 0.00 mm
0.0 mm/h
3.3 133 cm
15:15 Sonnig2 27.0 °C
27.0 °C
32 %
8.7 °C
1013.8 hPa 1.4 km/h
1 Bft
9.7 km/h
2 Bft
NO -
0.0 mm/h
3.1 134 cm
15:30 Sonnig2 26.4 °C
26.4 °C
32 %
8.2 °C
1013.7 hPa 3.2 km/h
1 Bft
9.7 km/h
2 Bft
SSW -
0.0 mm/h
3.0 134 cm
15:45 Sonnig2 26.5 °C
26.5 °C
33 %
8.8 °C
1013.6 hPa 3.2 km/h
1 Bft
4.7 km/h
1 Bft
ONO -
0.0 mm/h
2.8 134 cm
16:00 Sonnig2 27.5 °C
27.5 °C
32 %
9.3 °C
1013.5 hPa 3.2 km/h
1 Bft
6.5 km/h
2 Bft
O 0.00 mm
0.0 mm/h
2.6 135 cm
16:15 Sonnig2 26.5 °C
26.5 °C
31 %
7.8 °C
1013.4 hPa 3.2 km/h
1 Bft
9.7 km/h
2 Bft
W -
0.0 mm/h
2.4 136 cm
16:30 Sonnig2 28.0 °C
28.0 °C
31 %
9.2 °C
1013.4 hPa 4.7 km/h
1 Bft
13.0 km/h
3 Bft
NO -
0.0 mm/h
2.2 135 cm
16:45 Sonnig2 27.4 °C
27.4 °C
31 %
8.7 °C
1013.3 hPa 1.4 km/h
1 Bft
9.7 km/h
2 Bft
NNO -
0.0 mm/h
1.9 136 cm
17:00 Sonnig2 26.8 °C
26.8 °C
31 %
8.1 °C
1013.2 hPa 1.4 km/h
1 Bft
7.9 km/h
2 Bft
NNW 0.00 mm
0.0 mm/h
1.7 136 cm
17:15 Sonnig2 25.8 °C
25.8 °C
32 %
7.7 °C
1013.1 hPa 3.2 km/h
1 Bft
6.5 km/h
2 Bft
WNW -
0.0 mm/h
1.4 136 cm
17:30 Sonnig2 26.0 °C
26.0 °C
32 %
7.9 °C
1013.0 hPa 1.4 km/h
1 Bft
6.5 km/h
2 Bft
WNW -
0.0 mm/h
1.2 136 cm
17:45 Sonnig2 26.4 °C
26.4 °C
31 %
7.7 °C
1013.0 hPa 1.4 km/h
1 Bft
6.5 km/h
2 Bft
WNW -
0.0 mm/h
1.1 137 cm
18:00 Sonnig2 25.2 °C
25.2 °C
33 %
7.7 °C
1013.0 hPa 3.2 km/h
1 Bft
4.7 km/h
1 Bft
WSW 0.00 mm
0.0 mm/h
0.9 138 cm
18:15 Sonnig2 26.5 °C
26.5 °C
32 %
8.3 °C
1012.9 hPa 0.0 km/h
0 Bft
4.7 km/h
1 Bft
W -
0.0 mm/h
0.6 138 cm
18:30 Sonnig2 25.7 °C
25.7 °C
33 %
8.1 °C
1012.8 hPa 1.4 km/h
1 Bft
3.2 km/h
1 Bft
W -
0.0 mm/h
0.0 138 cm
18:45 Sonnig2 25.4 °C
25.4 °C
33 %
7.8 °C
1012.8 hPa 1.4 km/h
1 Bft
4.7 km/h
1 Bft
NW -
0.0 mm/h
0.0 138 cm
19:00 Sonnig2 24.7 °C
24.7 °C
34 %
7.7 °C
1012.8 hPa 1.4 km/h
1 Bft
3.2 km/h
1 Bft
NW 0.00 mm
0.0 mm/h
0.0 138 cm
19:15 Sonnig2 24.1 °C
24.1 °C
35 %
7.6 °C
1012.7 hPa 1.4 km/h
1 Bft
4.7 km/h
1 Bft
NW -
0.0 mm/h
0.0 139 cm
19:30 Sonnig2 23.3 °C
23.3 °C
38 %
8.1 °C
1012.8 hPa 1.4 km/h
1 Bft
4.7 km/h
1 Bft
NNW -
0.0 mm/h
0.0 139 cm
19:45 Wolkenlos2 22.6 °C
22.6 °C
40 %
8.2 °C
1012.8 hPa 1.4 km/h
1 Bft
4.7 km/h
1 Bft
NNW -
0.0 mm/h
0.0 139 cm
20:00 Wolkenlos3 21.9 °C
21.9 °C
42 %
8.3 °C
1012.8 hPa 3.2 km/h
1 Bft
6.5 km/h
2 Bft
NNW 0.00 mm
0.0 mm/h
0.0 140 cm
20:15 Wolkenlos3 21.4 °C
21.4 °C
44 %
8.6 °C
1012.9 hPa 1.4 km/h
1 Bft
6.5 km/h
2 Bft
NNW -
0.0 mm/h
0.0 140 cm
20:30 Wolkenlos3 21.1 °C
21.1 °C
45 %
8.6 °C
1012.9 hPa 1.4 km/h
1 Bft
3.2 km/h
1 Bft
NNW -
0.0 mm/h
0.0 141 cm
20:45 Wolkenlos3 20.6 °C
20.6 °C
47 %
8.8 °C
1012.9 hPa 0.0 km/h
0 Bft
3.2 km/h
1 Bft
NNW -
0.0 mm/h
0.0 142 cm
21:00 Wolkenlos2 20.2 °C
20.2 °C
49 %
9.1 °C
1012.9 hPa 0.0 km/h
0 Bft
1.4 km/h
1 Bft
NNW 0.00 mm
0.0 mm/h
0.0 141 cm
21:15 Wolkenlos2 19.6 °C
19.6 °C
50 %
8.9 °C
1013.0 hPa 0.0 km/h
0 Bft
1.4 km/h
1 Bft
NNW -
0.0 mm/h
0.0 143 cm
21:30 Wolkenlos2 19.5 °C
19.5 °C
50 %
8.8 °C
1012.9 hPa 1.4 km/h
1 Bft
1.4 km/h
1 Bft
NNW -
0.0 mm/h
0.0 142 cm
21:45 Wolkenlos2 19.2 °C
19.2 °C
52 %
9.1 °C
1012.9 hPa 0.0 km/h
0 Bft
3.2 km/h
1 Bft
NNW -
0.0 mm/h
0.0 142 cm
22:00 Wolkenlos2 18.9 °C
18.9 °C
53 %
9.1 °C
1012.8 hPa 1.4 km/h
1 Bft
1.4 km/h
1 Bft
NNW 0.00 mm
0.0 mm/h
0.0 143 cm
22:15 Wolkenlos2 18.6 °C
18.6 °C
54 %
9.0 °C
1012.9 hPa 0.0 km/h
0 Bft
1.4 km/h
1 Bft
NNW -
0.0 mm/h
0.0 143 cm
22:30 Wolkenlos2 18.2 °C
18.2 °C
56 %
9.2 °C
1012.8 hPa 0.0 km/h
0 Bft
0.0 km/h
0 Bft
NNW -
0.0 mm/h
0.0 144 cm
22:45 Wolkenlos3 18.2 °C
18.2 °C
56 %
9.2 °C
1012.9 hPa 0.0 km/h
0 Bft
1.4 km/h
1 Bft
NNW -
0.0 mm/h
0.0 144 cm
23:00 Wolkenlos3 17.8 °C
17.8 °C
57 %
9.1 °C
1012.7 hPa 0.0 km/h
0 Bft
1.4 km/h
1 Bft
NNW 0.00 mm
0.0 mm/h
0.0 145 cm
23:15 Wolkenlos3 17.3 °C
17.3 °C
59 %
9.1 °C
1012.8 hPa 1.4 km/h
1 Bft
3.2 km/h
1 Bft
NNW -
0.0 mm/h
0.0 145 cm
23:30 Wolkenlos3 17.1 °C
17.1 °C
60 %
9.2 °C
1012.7 hPa 0.0 km/h
0 Bft
3.2 km/h
1 Bft
NNW -
0.0 mm/h
0.0 145 cm
23:45 Wolkenlos2 16.7 °C
16.7 °C
63 %
9.6 °C
1012.7 hPa 1.4 km/h
1 Bft
4.7 km/h
1 Bft
SO -
0.0 mm/h
0.0 145 cm
00:00 Wolkenlos2 16.5 °C
16.5 °C
65 %
9.8 °C
1012.7 hPa 0.0 km/h
0 Bft
3.2 km/h
1 Bft
SO 0.00 mm
0.0 mm/h
0.0 145 cm
Datenbasis Wetterzustand: ¹ Wetterstation Köln-Nippes (Stellwerk), ² powered by , ³ powered by OpenWeatherMap, CC BY-SA 4.0; Warnlage: DWD, Pegelonline, LANUV; Pegel Köln: Pegelonline
 
Extrem- und Durchschnittswerte
  Temperatur Luftfeuchte Luftdruck Wind Windböen Wind-
richtung
Regen UV-Index Pegel Köln KKT
Min

Max

Ø
11.5 °C
06:28 Uhr
28.4 °C
16:31 Uhr
19.3 °C
29.0 %
16:31 Uhr
79.0 %
06:36 Uhr
52.2 %
1012.7 hPa
18:33 Uhr
1016.2 hPa
08:21 Uhr
1014.5 hPa
 
 
6.5 km/h
10:54 Uhr
1.8 km/h
 
 
13.0 km/h
10:11 Uhr
 
 
 
SO
 
 
 
 
0.00 mm
 
 
 
 
3.7
12:45 Uhr
 
132 cm
07:15 Uhr
145 cm
23:00 Uhr
 
ST
  gefühlt Taupunkt   Wind Windböen   Regenrate Ozon Sonne Mond
Min

Max

Ø
11.5 °C
06:28 Uhr
28.4 °C
16:31 Uhr
 
7.2 °C
17:03 Uhr
9.9 °C
15:19 Uhr
8.3 °C
   
 
2 Bft
10:54 Uhr
1.8 km/h
 
 
3 Bft
10:11 Uhr
 
   
 
0.0 mm/h
00:00 Uhr
 
 
Chorweiler
126 μg/m³
18:00 Uhr
 
▲ 07:18 Uhr
▼ 19:33 Uhr
▲ 12:26 Uhr
▼ 21:45 Uhr
KKT = Klimatologischer Kenntag: ET = Eistag, FT = Frosttag, KT = Kalter Tag, ST = Sommertag, HT = Hitzetag, TN = Tropennacht, NT = Niederschlagstag, SH = Schneehöhe (Max Tag); Datenbasis Ozon: LANUV, Land NRW, dl-de/by-2-0
 
Detaillierte Warnlage
















21.09.20

21.09.20

21.09.20

21.09.20

21.09.20

21.09.20

21.09.20
Datenbasis: DWD, Pegelonline, LANUV
Es ist ein Fehler aufgetreten.